This is the latest recevied weather packets stored in our database for station/object 4S6DRJ-13. If no packets are shown the sender has not sent any weather packets the latest 10 day(s).
| Time | Temp. | Humidity | Pressure | Rain* | Wind** | Luminosity | Snow |
|---|---|---|---|---|---|---|---|
| 1788033359 | 27.78° C | 85% | 1009.7 hPa | 0 mm | 2.24 m/s, 230° | 0 W/m² | - |
| 1788033298 | 27.78° C | 85% | 1010 hPa | 0 mm | 2.24 m/s, 222° | 0 W/m² | - |
| 1788033237 | 27.78° C | 85% | 1009.8 hPa | 0 mm | 1.79 m/s, 207° | 0 W/m² | - |
| 1788033176 | 27.78° C | 85% | 1009.9 hPa | 0 mm | 2.24 m/s, 218° | 0 W/m² | - |
| 1788033115 | 27.78° C | 85% | 1009.8 hPa | 0 mm | 1.79 m/s, 187° | 0 W/m² | - |
| 1788033054 | 27.78° C | 85% | 1009.9 hPa | 0 mm | 1.79 m/s, 177° | 0 W/m² | - |
| 1788032992 | 27.78° C | 85% | 1009.7 hPa | 0 mm | 1.79 m/s, 178° | 0 W/m² | - |
| 1788032932 | 27.78° C | 85% | 1010 hPa | 0 mm | 1.79 m/s, 257° | 0 W/m² | - |
| 1788032871 | 27.78° C | 85% | 1009.9 hPa | 0 mm | 0.89 m/s, 228° | 0 W/m² | - |
| 1788032810 | 27.78° C | 85% | 1009.8 hPa | 0 mm | 0.45 m/s, 280° | 0 W/m² | - |
| 1788032749 | 27.78° C | 85% | 1010 hPa | 0 mm | 1.34 m/s, 211° | 0 W/m² | - |
| 1788032688 | 27.78° C | 85% | 1009.9 hPa | 0 mm | 0.89 m/s, 225° | 0 W/m² | - |
| 1788032626 | 27.78° C | 85% | 1009.9 hPa | 0 mm | 0.45 m/s, 168° | 0 W/m² | - |
| 1788032566 | 27.78° C | 85% | 1009.7 hPa | 0 mm | 2.24 m/s, 233° | 0 W/m² | - |
| 1788032505 | 27.78° C | 85% | 1009.9 hPa | 0 mm | 0.45 m/s, 262° | 0 W/m² | - |
| 1788032444 | 27.78° C | 85% | 1010.2 hPa | 0 mm | 1.79 m/s, 222° | 0 W/m² | - |
| 1788032383 | 27.78° C | 85% | 1010 hPa | 0 mm | 2.24 m/s, 165° | 0 W/m² | - |
| 1788032322 | 27.78° C | 85% | 1010 hPa | 0 mm | 2.68 m/s, 263° | 0 W/m² | - |
| 1788032261 | 27.78° C | 85% | 1010 hPa | 0 mm | 1.34 m/s, 166° | 0 W/m² | - |
| 1788032200 | 27.78° C | 85% | 1009.7 hPa | 0 mm | 1.79 m/s, 213° | 0 W/m² | - |
| 1788032139 | 27.78° C | 85% | 1009.9 hPa | 0 mm | 1.34 m/s, 268° | 0 W/m² | - |
| 1788032078 | 27.78° C | 85% | 1009.8 hPa | 0 mm | 1.79 m/s, 255° | 0 W/m² | - |
| 1788032017 | 27.78° C | 85% | 1009.8 hPa | 0 mm | 0.89 m/s, 167° | 0 W/m² | - |
| 1788031956 | 27.78° C | 85% | 1009.9 hPa | 0 mm | 0.89 m/s, 172° | 0 W/m² | - |
| 1788031895 | 27.78° C | 85% | 1009.9 hPa | 0 mm | 1.34 m/s, 208° | 0 W/m² | - |
* Rain latest hour (hover to see other rain measurements)
** Current wind speed in m/s (hover to see current wind gust speed)